Location: Lewisville
(33.0462°N, 96.9942°W)
Time: 12:16:36
(UTC-06:00)

Envisat - Pass Details

Date: 29 November 2019
Orbit: 764 x 766 km, 98.1° (Epoch: 29 January)

Event Time Altitude Azimuth Distance (km) Brightness Sun altitude
Rises 18:21:25 0° 161° (SSE) 3,215 6.2 -12.6°
Reaches altitude 10° 18:23:43 10° 159° (SSE) 2,293 5.4 -13.0°
Maximum altitude 18:28:45 72° 76° (ENE) 807 2.9 -14.0°
Drops below altitude 10° 18:33:49 10° 353° (N) 2,308 5.4 -15.0°
Sets 18:36:08 0° 351° (N) 3,237 6.2 -15.5°
